Gadsden, AL

4:39 AM CDT on July 21, 2019 (GMT -0500)
Gadsden Municipal

Weather History for KGAD - May, 2019

Change the Weather History Date:

Monday, May 6, 2019

  Actual Average Record
Temperature  
Mean Temperature 65 °F -  
Max Temperature 81 °F 76 °F 95 °F (1952)
Min Temperature 50 °F 52 °F 39 °F (2011)
Growing Degree Days 15 (Base 50)    
Moisture  
Dew Point 58 °F    
Average Humidity 78    
Maximum Humidity 100    
Minimum Humidity 42    
Precipitation  
Precipitation 0.00 in - - ()
Sea Level Pressure  
Sea Level Pressure 30.04 in    
Wind  
Wind Speed 2 mph (NNW)    
Max Wind Speed 10 mph    
Max Gust Speed -    
Visibility 8 miles    
Events      
Averages and records for this station are not official NWS values.
T = Trace of Precipitation, MM = Missing Value Source: NWS Daily Summary

Daily Weather History Graph

Daily Weather History Graph

Search for Another Location

Airport or City:

Astronomy

May. 06, 2019 Rise Set
Actual Time 5:50 AM CDT 7:31 PM CDT
Civil Twilight 5:23 AM CDT 7:58 PM CDT
Nautical Twilight 4:51 AM CDT 8:31 PM CDT
Astronomical Twilight 4:16 AM CDT 9:05 PM CDT
Moon 7:13 AM CDT (5/6) 9:26 PM CDT (5/6)
Length of Visible Light 14h 35m
Length of Day
13h 41m
Waxing Crescent, 3% of the Moon is Illuminated
May 6
Waxing Crescent
May 11
First Quarter
May 18
Full
May 26
Last Quarter
Jun 3
New

Hourly Weather History & Observations

Time (CDT) Temp. Heat Index Dew Point Humidity Pressure Visibility Wind Dir Wind Speed Gust Speed Precip Events Conditions
1:56 AM 55.9 °F - 55.9 °F 100% 29.96 in 10.0 mi NW 3.5 mph - N/A   Clear
2:56 AM 53.1 °F - 53.1 °F 100% 29.99 in 10.0 mi WSW 3.5 mph - N/A   Clear
3:56 AM 52.0 °F - 52.0 °F 100% 30.01 in 10.0 mi Calm Calm - N/A   Clear
4:33 AM 51.8 °F - - N/A% 30.00 in 1.5 mi Calm Calm - N/A   Clear
4:36 AM 51.8 °F - - N/A% 30.01 in 0.8 mi Calm Calm - N/A   Clear
4:42 AM 51.8 °F - 51.8 °F 100% 30.01 in 1.2 mi West 3.5 mph - N/A   Clear
4:45 AM 51.8 °F - 51.8 °F 100% 30.02 in 3.0 mi West 3.5 mph - N/A   Clear
4:56 AM 51.1 °F - - N/A% 30.02 in 10.0 mi Calm Calm - N/A   Clear
5:19 AM 50.0 °F - 50.0 °F 100% 30.02 in 1.5 mi Calm Calm - N/A   Clear
5:30 AM 51.8 °F - 51.8 °F 100% 30.03 in 3.0 mi Calm Calm - N/A   Clear
5:48 AM 51.8 °F - - N/A% 30.03 in 1.8 mi Calm Calm - N/A   Clear
5:56 AM 51.1 °F - - N/A% 30.04 in 5.0 mi Calm Calm - N/A   Haze
6:56 AM 55.9 °F - - N/A% 30.05 in 10.0 mi Calm Calm - N/A   Clear
7:56 AM 62.1 °F - 61.0 °F 96% 30.06 in 10.0 mi Calm Calm - N/A   Clear
8:56 AM 66.9 °F - 62.1 °F 84% 30.07 in 10.0 mi NNE 4.6 mph - N/A   Clear
9:56 AM 70.0 °F - 62.1 °F 76% 30.08 in 10.0 mi Variable 4.6 mph - N/A   Clear
10:27 AM 69.8 °F - 60.8 °F 73% 30.07 in 10.0 mi NNE 6.9 mph - N/A   Mostly Cloudy
10:38 AM 71.6 °F - 59.0 °F 64% 30.06 in 10.0 mi NE 5.8 mph - N/A   Scattered Clouds
10:56 AM 72.0 °F - 59.0 °F 64% 30.07 in 10.0 mi NNE 10.4 mph - N/A   Clear
11:56 AM 73.9 °F - 60.1 °F 62% 30.08 in 10.0 mi NE 3.5 mph - N/A   Mostly Cloudy
12:56 PM 75.0 °F - 59.0 °F 57% 30.06 in 10.0 mi Variable 5.8 mph - N/A   Clear
1:56 PM 77.0 °F - 55.9 °F 48% 30.05 in 10.0 mi NNE 5.8 mph - N/A   Clear
2:56 PM 79.0 °F - 57.0 °F 47% 30.04 in 10.0 mi NNE 5.8 mph - N/A   Clear
3:56 PM 80.1 °F 80.4 °F 57.0 °F 45% 30.03 in 8.0 mi Calm Calm - N/A   Clear
4:56 PM 80.1 °F 80.1 °F 55.0 °F 42% 30.04 in 8.0 mi Calm Calm - N/A   Clear
5:56 PM 79.0 °F - 55.9 °F 45% 30.04 in 10.0 mi SW 3.5 mph - N/A   Clear
6:56 PM 75.9 °F - 61.0 °F 60% 30.04 in 10.0 mi Calm Calm - N/A   Clear
7:17 PM 71.6 °F - 66.2 °F 83% 30.04 in 1.5 mi Calm Calm - N/A   Haze
7:25 PM 71.6 °F - 66.2 °F 83% 30.05 in 8.0 mi SW 3.5 mph - N/A   Clear
7:56 PM 68.0 °F - 64.0 °F 87% 30.06 in 10.0 mi Calm Calm - N/A   Clear
8:56 PM 64.0 °F - 64.0 °F 100% 30.08 in 10.0 mi Calm Calm - N/A   Clear
9:56 PM 62.1 °F - 62.1 °F 100% 30.09 in 10.0 mi Calm Calm - N/A   Clear
10:56 PM 60.1 °F - - N/A% 30.09 in 10.0 mi Calm Calm - N/A   Clear